732  
NZUS59 KLOT 201107  
HRRLOT  
 
CHICAGO AREA WEATHER ROUNDUP  
NATIONAL WEATHER SERVICE CHICAGO/ROMEOVILLE IL  
500 AM CST SUN JAN 20 2019  
 
NOTE: "FAIR" INDICATES FEW OR NO CLOUDS BELOW 12,000 FEET WITH NO  
SIGNIFICANT WEATHER AND/OR OBSTRUCTIONS TO VISIBILITY.  
 
* THESE STATIONS ARE NOT UNDER NWS QUALITY CONTROL. THEY ALSO MAY NOT  
REPORT WEATHER SUCH AS PRECIPITATION OR FOG.  
 
ILZ005-006-012>014-019>023-201200-  
NORTHEAST ILLINOIS  
 
CITY SKY/WX TMP DP RH WIND PRES REMARKS  
OHARE N/A 8 -1 66 NW14 30.18R WCI -8  
MIDWAY N/A 10 1 67 NW14 30.18R WCI -6  
AURORA N/A 4 -2 76 N10 30.20R WCI -11  
LANSING* LGT SNOW 13 9 85 NW10 30.17R WCI 0  
JOLIET* MOCLDY 11 2 67 N6 30.21R WCI 2  
WAUKEGAN N/A 6 -4 63 NW9G20 30.18R WCI -8  
DUPAGE AIRPORT N/A 8 -2 63 NW10 30.19R WCI -6  
WHEELING N/A 8 -2 63 NW10 30.20R WCI -6  
KANKAKEE* CLOUDY 12 4 70 NW13 30.19R WCI -3  
MORRIS* N/A 7 0 70 N6 30.21R WCI -3  
LEWIS AIRPORT* N/A 9 1 70 N6 30.20R WCI -1  
NORTHERLY ISL N/A 13 7 77 NW14 N/A WCI -2  
NORTHERLY IS NOT AVBL  
NORTHERLY ISL N/A 13 7 77 NW14 N/A WCI -2  

 
 
WIZ051-052-058>065-066-070>072-201200-  
SOUTHEAST WISCONSIN  
 
CITY SKY/WX TMP DP RH WIND PRES REMARKS  
MILWAUKEE N/A 8 -4 58 N14 30.21R WCI -8  
KENOSHA* N/A 6 -2 69 NW9 30.19R WCI -8  
RACINE* CLOUDY 9 -3 58 NW13G24 30.21R WCI -7  
BURLINGTON N/A -1 -8 72 N7 30.22R WCI -14  
WAUKESHA N/A 3 -6 66 NW12 30.22R WCI -13  
WEST BEND N/A 3 -4 72 N8 30.22R WCI -10  

 
 
INZ001>003-010>013-019-020-201200-  
NORTHWEST INDIANA  
 
CITY SKY/WX TMP DP RH WIND PRES REMARKS  
GARY* LGT SNOW 18 12 79 NW14 30.17R VSB 1 WCI 4  
MICHIGAN CITY* NOT AVBL  
RENSSELAER* NOT AVBL  
VALPARAISO CLOUDY 13 -1 54 NE16 30.14R WCI -3  

 
 
LMZ740>746-201200-  
SOUTHERN LAKE MICHIGAN  
 
STATION/POSITION TIME SKY/WX TEMP WIND PRES VSBY  
AIR DIR/SP/G  
(UTC) (F) (DEG/KT/KT) (MB) (MI)  
HARRISON CRIB NOT AVBL  
NORTHERLY ISL 1100 13 310/ 14/ 17 N/A  
CALUMET HARBOR 1036 12 300/ 6/ 12 1021.0R  
BURNS HARBOR 1040 20 30/ 12/ 15 1021.0R  
MICHIGAN CITY NOT AVBL  

 
 
ABBREVIATIONS USED IN REMARKS  
TC - TEMPERATURE IN CELSIUS  
WCI - WIND CHILL INDEX  
HX - HEAT INDEX  
VSB - VISIBILITY  

 
 
 
CLICK HERE TO GO TO PREVIOUS BULLETINS.

The Nexlab IL Page
The Nexlab IN Page Main Text Page